Regional Weather Roundup
Issued by NWS

Home | Current Version | Previous Version | Text Only | Print | Product List | Glossary Off
Versions: 1 2 3 4 5 6 7 8 9 10 11 12 13 14 15 16 17 18 19 20 21 22 23 24 25 26 27 28

000
ASUS45 KBOU 252010
RWRCO

WEATHER ROUNDUP FOR COLORADO
NATIONAL WEATHER SERVICE DENVER/BOULDER CO
200 PM MDT FRI MAY 25 2018

NOTE: "FAIR" INDICATES FEW OR NO CLOUDS BELOW 12000 FEET WITH NO
SIGNIFICANT WEATHER AND/OR OBSTRUCTIONS TO VISIBILITY.

COZ001>005-013-030-031-252100-
...NORTHWEST COLORADO...

CITY           SKY/WX    TMP DP  RH WIND       PRES   REMARKS
CRAIG          FAIR      82  30  15 CALM      30.09F
HAYDEN         FAIR      78  32  18 NE5       30.14F
MEEKER         FAIR      83  20   9 S14       30.10F
RANGELY        FAIR      89  19   7 S10G24    30.01F
RABBIT EARS PA FAIR      59  28  31 S5        30.42F
STEAMBOAT SPGS FAIR      75  29  18 NW5       30.15F
WALDEN         FAIR      72  16  12 W5        30.25F
$$

COZ006>008-011-252100-
...WEST CENTRAL VALLEYS...

CITY           SKY/WX    TMP DP  RH WIND       PRES   REMARKS
GRAND JUNCTION FAIR      90  23   9 VRB7G16   29.99F
MONTROSE       FAIR      84  14   7 VRB3G17   30.06F
EAGLE          FAIR      80  20  10 VRB7      30.14F
RIFLE          FAIR      87  20   8 VRB5      30.04F
DELTA          FAIR      91  17   7 S7        30.03F
NUCLA          FAIR      86   9   5 SW22G29   30.14F
$$

COZ017>023-064>068-252100-
...SOUTHWEST COLORADO...

CITY           SKY/WX    TMP DP  RH WIND       PRES   REMARKS
DURANGO        FAIR      80  13   8 S8        30.20F
CORTEZ         FAIR      83  16   8 SW13      30.15F
PAGOSA SPRINGS FAIR      77   5   6 S10G23    30.28F
TELLURIDE      FAIR      72  13  10 SE18G26   30.34S
WOLF CREEK PAS FAIR      55  14  19 S24G31    30.59F
$$

COZ009-010-012-014-032>034-037-058>063-252100-
...CENTRAL COLORADO...

CITY           SKY/WX    TMP DP  RH WIND       PRES   REMARKS
ASPEN          FAIR      76   9   7 SE16G23   30.21F
BUENA VISTA    FAIR      76  11   8 E7        30.22F
COPPER MTN     FAIR      59  14  17 NW10G17   30.54F
BERTHOUD PASS  FAIR      48  36  61 SW12G18   30.58S
COTTONWOOD PAS FAIR      73  -2   5 W3G22     30.37F
GUNNISON       FAIR      77  18  11 SW7       30.21F
GRANBY         FAIR      73  29  19 W9G16     30.26F
KREMMLING      FAIR      82   7   5 SW10G18   30.20F
LEADVILLE      FAIR      68  11  11 NW9G22    30.36F
MONARCH PASS   FAIR      59  14  17 MISG      30.64F
SALIDA         FAIR      81  12   7 S3        30.25F
SUNLIGHT       FAIR      63  19  19 S7G18     30.47S
WILKERSON PASS FAIR      63   9  12 W6        30.52S
$$

COZ069>075-252100-
...SAN LUIS VALLEY/SANGRE DE CRISTO MOUNTAINS...

CITY           SKY/WX    TMP DP  RH WIND       PRES   REMARKS
ALAMOSA        FAIR      79  19  10 SE10G17   30.22F
DEL NORTE      FAIR      77  20  12 SE12      30.25F
LA VETA PASS   FAIR      72  19  14 S13       30.54F
SAGUACHE       NOT AVBL
$$

COZ035-036-038>040-252100-
...NORTHERN COLORADO FRONT RANGE...

CITY           SKY/WX    TMP DP  RH WIND       PRES   REMARKS
DENVER INTL AP FAIR      87  33  14 VRB5      30.05F
AURORA         NOT AVBL
FRONT RANGE AP NOT AVBL
ERIE MUNI ARPT FAIR      86  28  12 NE3       30.08F
BOULDER MUN AP FAIR      82  39  21 NE5       30.04F
CENTENNIAL     FAIR      84  28  13 VRB5      30.07F
BROOMFIELD     MOSUNNY   84  28  13 VRB5      30.07F
FORT COLLINS   FAIR      87  39  18 SE8       30.04F
LONGMONT       FAIR      89  34  14 NE6       30.04F
$$

COZ041-046-047-076>085-087-088-252100-
...PIKES PEAK/PALMER DIVIDE AND SOUTHERN FOOTHILLS...

CITY           SKY/WX    TMP DP  RH WIND       PRES   REMARKS
COLO. SPRINGS  FAIR      84  27  12 SE17      30.11F
A. F. ACADEMY  FAIR      83  25  12 SE10G21   30.12F
SCHRIEVER AFB  NOT AVBL
CHEYENNE MTN   PTSUNNY   80  20  11 SE12G20   30.10F
ELLICOTT         N/A    N/A N/A N/A VRB3      30.11F
FALCON         FAIR      83  23  11 S13       30.17F
FORT CARSON    FAIR      86  18   8 SE15G24   30.07F
LIMON          PTSUNNY   83  33  16 S9G18     30.06F
MONUMENT HILL  FAIR      77  28  16 SE5       30.18F
CANON CITY     SUNNY     91  30  11 E6G16     30.03F
WALSENBURG     FAIR      90  25   9 SW3       30.08F
TRINIDAD       FAIR      85  31  14 CALM      30.08F
$$

COZ042>045-048>051-090-091-252100-
...NORTHEAST COLORADO...

CITY           SKY/WX    TMP DP  RH WIND       PRES   REMARKS
GREELEY ARPT   FAIR      87  32  14 VRB3      30.02F
AKRON          FAIR      86  41  20 MISG      30.02F
BURLINGTON     FAIR      86  42  21 SW3       30.00F
WRAY           FAIR      90  36  14 W8        29.96F
YUMA           FAIR      86  45  23 W8        29.99F
STERLING       FAIR      88  45  22 SW9       29.97F
HOLYOKE        FAIR      95  41  15 W5        29.96F
FORT MORGAN    FAIR      89  31  12 SW5       30.02S
$$

COZ086-089-092>099-252100-
...SOUTHEAST COLORADO...

CITY           SKY/WX    TMP DP  RH WIND       PRES   REMARKS
PUEBLO         FAIR      91  35  13 MISG      30.00F
LA JUNTA       FAIR      91  39  16 E9        30.00F
LAMAR          FAIR      92  41  17 MISG      29.94F
SPRINGFIELD      N/A     88  46  23 E8        30.00F
$$




USA.gov is the U.S. government's official web portal to all federal, state and local government web resources and services.